Voltar ao catálogo

CHUBUSAT 3

AtivoCiênciaVLEO
NORAD 41339·PAYLOAD·🇯🇵 Japan

Lançado Feb 17, 2016 de Tanegashima Space Center

Loading…

Próximas Passagens (próximas 24 horas)

TLE

AtualizadoSource: Space-Track

Época: Sep 14, 2026, 15:25 UTC

1 41339U 16012C   26257.64289176  .00003839  00000-0  17269-3 0  9996
2 41339  31.0042 105.7584 0008807 258.9911 100.9739 15.19197939581816

Acompanhe CHUBUSAT 3 em tempo real com AllMySat

Download on the App Store